[[{"header":{"parameterUnit":"m.s-1","parameterCategory":1,"la1":30.2991,"la2":30.254,"lo1":-89.0895,"lo2":-89.0444,"dy":0.0017,"dx":0.0017,"nx":28,"ny":28,"refTime":"2023-08-01T21:00:00:Z","depth":0,"parameterNumber":2,"parameterNumberName":"U-component_of_WINDS"},"data":[0,0,0,0,0,0,0,0,0,0,0,0,0,0,0,0,0,0,0,0,0,0,0,0,0,0,0,0,0,0,0,0,0,0,0,0,0,0,0,0,0,0,0,0,0,0,0,0,0,0,0,0,0,0,0,0,0,0,2.812,2.8119,0,2.8072,2.8072,2.8071,2.7952,2.795,2.7947,2.7945,2.7899,2.79,2.7901,0,0,0,0,0,0,0,0,0,0,0,0,0,2.8108,2.8109,2.812,2.8119,2.8119,2.8072,2.8072,2.8071,2.7953,2.795,2.7947,2.7944,2.7898,2.79,2.7901,0,0,0,0,0,0,0,0,0,0,0,0,0,2.8092,2.8109,2.812,2.8054,2.8047,2.8073,2.8072,2.8071,2.7953,2.795,2.7946,2.7942,2.7898,2.7899,2.7901,2.7987,0,0,2.7906,2.7907,0,0,0,0,0,0,0,0,2.8093,2.8093,2.8064,2.8058,2.8051,2.8014,2.805,2.8043,2.7954,2.7989,2.7945,2.794,2.794,2.7938,2.7938,2.7985,2.7983,2.7906,2.7907,2.7908,2.7909,0,0,0,0,0,0,0,2.8094,2.8094,2.8101,2.8064,2.8056,2.8027,2.802,2.8049,2.7987,2.7986,2.7977,2.7973,2.7936,2.7936,2.7936,2.7982,2.7906,2.7908,2.7909,2.7909,2.8094,2.8098,0,0,0,0,0,0,2.8105,2.8096,2.8102,2.81,2.8063,2.803,2.8023,2.803,2.7986,2.7976,2.7976,2.7968,2.7935,2.7934,2.7934,2.8029,2.7908,2.791,2.7911,2.8091,2.8095,2.8099,0,0,0,0,0,0,2.8105,2.8107,2.8104,2.8095,2.8093,2.8034,2.8043,2.8031,2.8031,2.7979,2.7967,2.7988,2.7932,2.7931,2.7974,2.8026,2.791,2.7912,2.8086,2.8092,2.8097,2.8222,0,0,0,0,0,0,2.8105,2.8107,2.814,2.8097,2.8094,2.8146,2.8047,2.8033,2.8034,2.8022,2.7987,2.7977,2.7929,2.7972,2.7976,2.8026,2.7913,2.8081,2.8089,2.8096,2.8213,2.8231,2.8247,0,0,0,0,0,2.8105,2.8178,2.8142,2.8143,2.8133,2.8149,2.8147,2.809,2.8039,2.807,2.8036,2.7978,2.802,2.7977,2.798,2.8032,2.8077,2.8086,2.8095,2.8205,2.8228,2.8247,0,0,0,0,0,0,2.823,2.8171,2.8131,2.8191,2.8176,2.8129,2.8167,2.8116,2.8116,2.8105,2.8035,2.8028,2.8079,2.806,2.8014,2.8111,2.8039,2.8049,2.8122,2.8143,2.816,2.8162,2.7915,0,0,0,0,0,2.8264,2.8282,2.823,2.8288,2.8283,2.8227,2.8232,2.8189,2.817,2.8163,2.8132,2.8117,2.8126,2.8134,2.8139,2.821,2.8199,2.8247,2.8264,2.8278,2.8287,2.832,2.834,2.8128,2.8128,2.8128,0,0,2.8336,2.8306,2.8321,2.8313,2.8295,2.8315,2.8222,2.8247,2.8261,2.8167,2.8204,2.8181,2.8159,2.8216,2.8239,2.8201,2.8343,2.829,2.8301,2.8302,2.8332,2.8352,2.837,2.8134,2.8133,2.8132,0,0,2.8475,2.8455,2.85,2.8484,2.8459,2.8421,2.8432,2.8392,2.8372,2.8409,2.8338,2.8353,2.8372,2.8358,2.8353,2.8486,2.8431,2.849,2.8579,2.8612,2.8628,2.8643,2.8688,2.8705,2.8499,2.8499,2.8499,0,2.8567,2.8593,2.853,2.8559,2.8556,2.8471,2.8516,2.8504,2.8483,2.8483,2.8441,2.8459,2.8439,2.8489,2.8521,2.8522,2.8531,2.8493,2.8631,2.8645,2.8657,2.8699,2.8717,2.8506,2.8506,2.8505,2.8504,0,2.8706,2.8725,2.8765,2.8744,2.8746,2.8784,2.8726,2.8735,2.8692,2.8658,2.8695,2.8667,2.8665,2.8674,2.8633,2.8718,2.8695,2.8644,2.8569,2.8686,2.8724,2.8739,2.8516,2.8514,2.8512,2.851,0,0,2.8923,2.8865,2.8881,2.8869,2.8834,2.8848,2.888,2.8876,2.8885,2.8873,2.8897,2.8914,2.8864,2.886,2.8816,2.8846,2.8949,2.879,2.8788,2.8818,2.9038,2.9076,2.9096,2.8913,2.8916,2.8919,2.9039,0,2.9052,2.9103,2.9047,2.911,2.9125,2.9044,2.9072,2.9053,2.9022,2.9031,2.8997,2.9009,2.8944,2.894,2.8966,2.8931,2.8992,2.8922,2.8934,2.8936,2.894,2.9116,2.9156,2.9272,2.9054,2.9057,2.9058,0,2.921,2.9203,2.9267,2.9225,2.923,2.9256,2.9246,2.9256,2.9233,2.9208,2.9202,2.9149,2.9177,2.9105,2.9142,2.9096,2.9098,2.9081,2.9084,2.9082,2.9003,2.9116,2.9308,2.9324,2.9082,2.908,2.9078,0,2.9359,2.9366,2.9404,2.9397,2.935,2.937,2.9351,2.9324,2.9324,2.9317,2.9316,2.9312,2.931,2.9308,2.9255,2.9208,2.9298,2.9223,2.9277,2.9279,2.9299,2.9298,2.9491,2.9304,2.9304,2.9303,2.9303,0,2.9508,2.955,2.9469,2.9493,2.9537,2.9471,2.9517,2.949,2.9466,2.9482,2.9413,2.943,2.936,2.9369,2.9329,2.9364,2.9364,2.9344,2.9332,2.9349,2.9352,2.9348,2.9338,2.9308,2.9307,2.9306,2.9305,0,2.9681,2.9629,2.9665,2.9617,2.9606,2.964,2.9598,2.9618,2.9582,2.9603,2.9605,2.9549,2.9556,2.9503,2.9501,2.9473,2.9527,2.9503,2.9535,2.9526,2.9583,2.9578,2.9779,2.9801,2.9603,2.9604,2.9606,0,2.9779,2.9808,2.9763,2.9768,2.9752,2.9763,2.9762,2.9698,2.97,2.9675,2.9697,2.9698,2.9696,2.9711,2.967,2.9667,2.9641,2.9712,2.964,2.9655,2.9639,2.9637,2.9639,2.9726,2.9729,2.9731,2.9733,0,2.9957,2.9929,2.993,2.9922,2.9923,2.9914,2.9901,2.9909,2.984,2.9846,2.9851,2.9849,2.9846,2.9847,2.9836,2.9817,2.9763,2.9755,2.9767,2.9784,2.98,2.979,2.9573,2.9751,2.9749,2.9748,2.9747,2.9746,3.0093,3.0115,3.0085,3.0088,3.0071,3.0059,3.0074,3.0039,3.0042,3.0033,2.9996,3.0008,2.9982,2.9961,2.9947,2.9955,2.9921,2.9939,2.9943,2.9948,2.9957,2.9801,2.9953,2.9953,2.9952,2.9952,2.9951,0,3.0266,3.0242,3.0245,3.0227,3.023,3.0178,3.0159,3.0165,3.0176,3.0156,3.0154,3.0159,3.016,3.0118,3.0113,3.0128,3.0103,3.0128,3.0126,3.0122,2.9989,2.9978,3.0148,3.0148,3.0148,3.0148,3.0148,3.0148,3.0355,3.0388,3.0357,3.038,3.0355,3.0365,3.0359,3.0348,3.0331,3.0339,3.0339,3.0311,3.0282,3.0274,3.0272,3.026,3.026,3.0294,3.0274,3.0151,3.0131,3.0113,3.0102,3.0296,3.0296,3.0405,3.0406,3.0407]},{"header":{"parameterUnit":"m.s-1","parameterCategory":1,"la1":30.2991,"la2":30.254,"lo1":-89.0895,"lo2":-89.0444,"dy":0.0017,"dx":0.0017,"nx":28,"ny":28,"refTime":"2023-08-01T21:00:00:Z","depth":0,"parameterNumber":3,"parameterNumberName":"V-component_of_WINDS"},"data":[0,0,0,0,0,0,0,0,0,0,0,0,0,0,0,0,0,0,0,0,0,0,0,0,0,0,0,0,0,0,0,0,0,0,0,0,0,0,0,0,0,0,0,0,0,0,0,0,0,0,0,0,0,0,0,0,0,0,2.2415,2.2416,0,2.2516,2.2517,2.2518,2.2532,2.2531,2.253,2.2529,2.2629,2.2632,2.2636,0,0,0,0,0,0,0,0,0,0,0,0,0,2.223,2.2233,2.2415,2.2416,2.2417,2.2516,2.2517,2.2518,2.2532,2.2531,2.253,2.2529,2.2628,2.2632,2.2636,0,0,0,0,0,0,0,0,0,0,0,0,0,2.2318,2.2234,2.2415,2.2436,2.2439,2.2515,2.2517,2.2519,2.2532,2.2531,2.2529,2.2528,2.2626,2.2631,2.2637,2.2698,0,0,2.2653,2.2655,0,0,0,0,0,0,0,0,2.2313,2.2325,2.2432,2.2435,2.2438,2.251,2.2489,2.2579,2.2533,2.2497,2.2529,2.2527,2.259,2.2598,2.262,2.2702,2.2707,2.2653,2.2657,2.2659,2.266,0,0,0,0,0,0,0,2.2307,2.2321,2.2455,2.2433,2.2437,2.2439,2.245,2.2506,2.255,2.25,2.2501,2.2513,2.2592,2.2615,2.2623,2.2708,2.2653,2.2658,2.2661,2.2663,2.2844,2.2846,0,0,0,0,0,0,2.2298,2.2316,2.2451,2.2458,2.2371,2.2444,2.2456,2.2488,2.2549,2.2557,2.2514,2.2513,2.2607,2.2616,2.2626,2.2701,2.2659,2.2664,2.2667,2.2842,2.2844,2.2846,0,0,0,0,0,0,2.2294,2.231,2.2447,2.2387,2.2405,2.2449,2.2484,2.2491,2.2515,2.256,2.2568,2.253,2.2606,2.2619,2.268,2.2705,2.2666,2.2671,2.284,2.2843,2.2845,2.2851,0,0,0,0,0,0,2.2288,2.2308,2.2333,2.2388,2.2408,2.25,2.2486,2.2494,2.2524,2.2524,2.2577,2.2585,2.2606,2.2672,2.2685,2.2711,2.2675,2.2838,2.2842,2.2844,2.2849,2.2854,2.2857,0,0,0,0,0,2.2282,2.233,2.2334,2.235,2.244,2.2502,2.2513,2.2538,2.2526,2.255,2.258,2.2583,2.27,2.2678,2.2693,2.2721,2.2837,2.2841,2.2844,2.2847,2.2853,2.2857,0,0,0,0,0,0,2.2276,2.2337,2.2343,2.241,2.2451,2.2504,2.2536,2.2543,2.2587,2.2585,2.2612,2.2624,2.2683,2.2708,2.2683,2.2783,2.2767,2.2774,2.2764,2.277,2.2774,2.2766,2.268,0,0,0,0,0,2.2282,2.2329,2.238,2.2434,2.2455,2.2492,2.252,2.2535,2.2577,2.2594,2.2628,2.2668,2.2714,2.2743,2.2788,2.2853,2.2864,2.2879,2.2884,2.2887,2.2892,2.2927,2.2934,2.2858,2.2858,2.2858,0,0,2.2296,2.2336,2.2363,2.2434,2.2468,2.2514,2.2506,2.2555,2.2589,2.2601,2.2661,2.2687,2.2734,2.2797,2.2826,2.282,2.2916,2.2892,2.2894,2.2897,2.2932,2.2939,2.2945,2.2861,2.286,2.286,0,0,2.2345,2.2381,2.243,2.2463,2.2514,2.2538,2.255,2.2602,2.262,2.2681,2.2691,2.2731,2.2809,2.2842,2.2869,2.293,2.2934,2.2943,2.2965,2.2999,2.3005,2.301,2.3031,2.3038,2.2948,2.2949,2.2949,0,2.2356,2.2427,2.2453,2.2503,2.2533,2.2547,2.2596,2.2627,2.2689,2.2709,2.2701,2.28,2.2832,2.2902,2.2917,2.2939,2.2952,2.2937,2.3002,2.3008,2.3013,2.3033,2.3041,2.2949,2.2949,2.2949,2.2949,0,2.2437,2.2486,2.252,2.258,2.2615,2.2663,2.2696,2.2727,2.2739,2.2763,2.2824,2.2864,2.2916,2.2934,2.2946,2.3006,2.3,2.2997,2.2981,2.3021,2.304,2.3048,2.295,2.295,2.295,2.295,0,0,2.2485,2.256,2.2571,2.2599,2.2656,2.2694,2.2742,2.2795,2.282,2.2863,2.2903,2.2969,2.2966,2.2997,2.3012,2.3042,2.3087,2.3035,2.3037,2.3043,2.3153,2.3155,2.3163,2.309,2.3092,2.3093,2.3149,0,2.254,2.2629,2.2653,2.2728,2.2773,2.2787,2.2829,2.2867,2.2892,2.2932,2.2958,2.3004,2.2998,2.3016,2.3046,2.3075,2.3109,2.3071,2.3127,2.3128,2.3114,2.3174,2.3175,2.3227,2.3157,2.3158,2.3159,0,2.2616,2.266,2.274,2.279,2.281,2.2848,2.2897,2.2936,2.298,2.2995,2.3029,2.3042,2.3092,2.3075,2.3143,2.3117,2.3141,2.3158,2.3161,2.3166,2.3146,2.3179,2.3244,2.3251,2.3171,2.317,2.317,0,2.2641,2.2721,2.2779,2.2802,2.2862,2.2888,2.2915,2.2957,2.2987,2.303,2.3049,2.3097,2.3122,2.3158,2.3183,2.3169,2.3249,2.3234,2.3262,2.3261,2.3278,2.3276,2.3345,2.3295,2.3295,2.3295,2.3294,0,2.27,2.2747,2.2791,2.2826,2.2879,2.2907,2.2958,2.2985,2.3022,2.3062,2.3077,2.3113,2.3144,2.3185,2.3205,2.3257,2.3269,2.3282,2.3286,2.328,2.3278,2.3296,2.3292,2.3297,2.3296,2.3296,2.3295,0,2.2737,2.2768,2.2832,2.2884,2.2898,2.2935,2.2979,2.3013,2.3038,2.3088,2.3101,2.3139,2.3187,2.3216,2.3277,2.329,2.3348,2.3352,2.3334,2.3336,2.3362,2.3358,2.3444,2.3456,2.3398,2.3398,2.3399,0,2.2771,2.2808,2.2865,2.2893,2.292,2.2965,2.2995,2.3023,2.3054,2.3107,2.3134,2.3183,2.3224,2.33,2.3333,2.3379,2.3383,2.341,2.339,2.3382,2.3382,2.3379,2.3382,2.3413,2.3413,2.3414,2.3414,0,2.2829,2.2843,2.2887,2.2936,2.2972,2.3012,2.3052,2.3074,2.3108,2.3142,2.3192,2.3224,2.3286,2.3335,2.3384,2.3409,2.3417,2.342,2.3429,2.3422,2.341,2.3416,2.3342,2.3418,2.3417,2.3417,2.3417,2.3417,2.2865,2.2898,2.2943,2.2991,2.3024,2.3061,2.3095,2.3125,2.3167,2.3221,2.3235,2.3287,2.3329,2.3395,2.3422,2.3462,2.3458,2.3471,2.3474,2.3476,2.3476,2.3404,2.3471,2.3471,2.3471,2.3471,2.3471,0,2.2923,2.2952,2.2996,2.3052,2.3089,2.3095,2.3139,2.317,2.3216,2.3255,2.3295,2.3352,2.3399,2.3435,2.3483,2.3508,2.3512,2.3519,2.3517,2.3522,2.3478,2.3466,2.3514,2.3514,2.3514,2.3514,2.3514,2.3514,2.2957,2.3013,2.3032,2.3104,2.3133,2.3185,2.321,2.3243,2.3274,2.3337,2.3377,2.3401,2.3438,2.3489,2.3531,2.3541,2.3557,2.3563,2.3573,2.353,2.3526,2.3521,2.3509,2.3567,2.3567,2.3613,2.3614,2.3614]}]]